Weather History for Sparta, IL

Change the Weather History Date:

Wednesday, January 4, 2012

  Actual Average (KBLV) Record (KBLV)
Temperature  
Mean Temperature 40 °F -  
Max Temperature 51 °F 38 °F 71 °F (1997)
Min Temperature 30 °F 22 °F 0 °F (1959)
Degree Days  
Heating Degree Days 24    
Moisture  
Dew Point 23 °F    
Average Humidity 54    
Maximum Humidity 69    
Minimum Humidity 38    
Precipitation  
Precipitation 0.00 in - - ()
Sea Level Pressure  
Sea Level Pressure 30.10 in    
Wind  
Wind Speed 10 mph (SW)    
Max Wind Speed 15 mph    
Max Gust Speed 18 mph    
Visibility 10 miles    
Events      
Averages and records for this station are not official NWS values.
T = Trace of Precipitation, MM = Missing Value Source: NWS Daily Summary

Daily Weather History Graph

Daily Weather History Graph

Search for Another Location

Airport:

Trip Planner

Search our weather history database for the weather conditions in past years. The results will help you decide how hot, cold, wet, or windy it might be!

Date:

Astronomy

Jan. 04, 2012 Rise Set
Actual Time 7:15 AM CST 4:51 PM CST
Civil Twilight 6:46 AM CST 5:21 PM CST
Nautical Twilight 6:13 AM CST 5:54 PM CST
Astronomical Twilight 5:41 AM CST 6:26 PM CST
Moon 1:14 PM CST (1/4) 3:04 AM CST (1/4)
Length of Visible Light 10h 35m
Length of Day
9h 36m
Waxing Gibbous, 81% of the Moon is Illuminated
Jan 4
Waxing Gibbous
Jan 9
Full
Jan 16
Last Quarter
Jan 23
New
Jan 30
First Quarter

Hourly Weather History & Observations

Time (CST) Temp. Windchill Dew Point Humidity Pressure Visibility Wind Dir Wind Speed Gust Speed Precip Events Conditions
12:15 AM 30.2 °F 20.8 °F 17.6 °F 60% 30.17 in 10.0 mi South 11.5 mph 16.1 mph N/A   Clear
12:35 AM 30.2 °F 21.9 °F 17.6 °F 60% 30.16 in 10.0 mi South 9.2 mph 16.1 mph N/A   Clear
12:55 AM 30.2 °F 21.9 °F 17.6 °F 60% 30.15 in 10.0 mi South 9.2 mph 17.3 mph N/A   Clear
1:15 AM 30.2 °F 21.3 °F 17.6 °F 60% 30.14 in 10.0 mi South 10.4 mph 17.3 mph N/A   Clear
1:35 AM 30.2 °F 21.3 °F 17.6 °F 60% 30.14 in 10.0 mi South 10.4 mph - N/A   Clear
1:55 AM 30.2 °F 20.8 °F 17.6 °F 60% 30.14 in 10.0 mi South 11.5 mph - N/A   Clear
2:15 AM 30.2 °F 20.8 °F 17.6 °F 60% 30.13 in 10.0 mi South 11.5 mph 16.1 mph N/A   Clear
2:35 AM 30.2 °F 20.8 °F 19.4 °F 64% 30.13 in 10.0 mi SSW 11.5 mph - N/A   Clear
2:55 AM 30.2 °F 19.8 °F 19.4 °F 64% 30.11 in 10.0 mi South 13.8 mph - N/A   Clear
3:15 AM 30.2 °F 20.2 °F 19.4 °F 64% 30.11 in 10.0 mi South 12.7 mph 18.4 mph N/A   Clear
3:35 AM 30.2 °F 21.3 °F 19.4 °F 64% 30.10 in 10.0 mi South 10.4 mph 16.1 mph N/A   Clear
3:55 AM 30.2 °F 20.8 °F 19.4 °F 64% 30.09 in 10.0 mi South 11.5 mph 16.1 mph N/A   Clear
4:15 AM 30.2 °F 21.9 °F 19.4 °F 64% 30.10 in 10.0 mi South 9.2 mph - N/A   Clear
4:35 AM 30.2 °F 22.6 °F 19.4 °F 64% 30.10 in 10.0 mi SSW 8.1 mph - N/A   Clear
4:55 AM 32.0 °F 24.8 °F 19.4 °F 60% 30.10 in 10.0 mi South 8.1 mph - N/A   Clear
5:15 AM 32.0 °F 24.2 °F 19.4 °F 60% 30.10 in 10.0 mi South 9.2 mph - N/A   Clear
5:35 AM 30.2 °F 21.9 °F 19.4 °F 64% 30.10 in 10.0 mi South 9.2 mph - N/A   Clear
5:55 AM 30.2 °F 21.3 °F 19.4 °F 64% 30.10 in 10.0 mi South 10.4 mph - N/A   Clear
6:15 AM 30.2 °F 20.8 °F 19.4 °F 64% 30.09 in 10.0 mi South 11.5 mph - N/A   Clear
6:35 AM 30.2 °F 21.9 °F 19.4 °F 64% 30.10 in 10.0 mi South 9.2 mph - N/A   Clear
6:55 AM 30.2 °F 21.9 °F 19.4 °F 64% 30.10 in 10.0 mi SSW 9.2 mph - N/A   Clear
7:15 AM 30.2 °F 21.9 °F 21.2 °F 69% 30.10 in 10.0 mi SSW 9.2 mph - N/A   Clear
7:35 AM 30.2 °F 21.9 °F 21.2 °F 69% 30.10 in 10.0 mi South 9.2 mph - N/A   Clear
7:55 AM 30.2 °F 22.6 °F 21.2 °F 69% 30.10 in 10.0 mi South 8.1 mph - N/A   Clear
8:15 AM 32.0 °F 24.2 °F 21.2 °F 64% 30.10 in 10.0 mi South 9.2 mph - N/A   Clear
8:35 AM 33.8 °F 27.7 °F 21.2 °F 60% 30.11 in 10.0 mi SSW 6.9 mph - N/A   Clear
8:55 AM 33.8 °F 27.7 °F 21.2 °F 60% 30.10 in 10.0 mi South 6.9 mph - N/A   Clear
9:15 AM 37.4 °F 31.4 °F 21.2 °F 52% 30.11 in 10.0 mi SSW 8.1 mph - N/A   Clear
9:35 AM 37.4 °F 30.8 °F 21.2 °F 52% 30.10 in 10.0 mi SW 9.2 mph - N/A   Clear
9:55 AM 39.2 °F 33.6 °F 21.2 °F 49% 30.11 in 10.0 mi SW 8.1 mph - N/A   Clear
10:15 AM 42.8 °F 37.5 °F 21.2 °F 42% 30.11 in 10.0 mi WSW 9.2 mph - N/A   Clear
10:35 AM 42.8 °F 37.0 °F 21.2 °F 42% 30.11 in 10.0 mi West 10.4 mph 18.4 mph N/A   Clear
10:55 AM 44.6 °F 38.8 °F 23.0 °F 43% 30.09 in 10.0 mi West 11.5 mph - N/A   Clear
11:15 AM 46.4 °F 41.9 °F 24.8 °F 43% 30.09 in 10.0 mi West 9.2 mph - N/A   Clear
11:35 AM 46.4 °F 40.4 °F 24.8 °F 43% 30.07 in 10.0 mi West 13.8 mph - N/A   Clear
11:55 AM 46.4 °F 41.5 °F 26.6 °F 46% 30.07 in 10.0 mi WNW 10.4 mph - N/A   Clear
12:15 PM 48.2 °F - 26.6 °F 43% 30.07 in 10.0 mi West 10.4 mph - N/A   Clear
12:35 PM 48.2 °F - 26.6 °F 43% 30.07 in 10.0 mi West 15.0 mph - N/A   Clear
12:55 PM 48.2 °F - 26.6 °F 43% 30.05 in 10.0 mi West 8.1 mph - N/A   Clear
1:15 PM 50.0 °F - 26.6 °F 40% 30.04 in 10.0 mi West 6.9 mph - N/A   Clear
1:35 PM 51.8 °F - 26.6 °F 38% 30.04 in 10.0 mi West 11.5 mph 16.1 mph N/A   Clear
1:55 PM 51.8 °F - 28.4 °F 41% 30.05 in 10.0 mi West 9.2 mph - N/A   Clear
2:15 PM 51.8 °F - 28.4 °F 41% 30.06 in 10.0 mi West 9.2 mph - N/A   Clear
2:35 PM 51.8 °F - 28.4 °F 41% 30.07 in 10.0 mi West 9.2 mph 17.3 mph N/A   Clear
2:55 PM 51.8 °F - 28.4 °F 41% 30.08 in 10.0 mi West 10.4 mph - N/A   Clear
3:15 PM 51.8 °F - 28.4 °F 41% 30.08 in 10.0 mi West 9.2 mph - N/A   Clear
3:35 PM 51.8 °F - 30.2 °F 44% 30.09 in 10.0 mi WNW 5.8 mph - N/A   Clear
3:55 PM 51.8 °F - 30.2 °F 44% 30.10 in 10.0 mi WNW 9.2 mph - N/A   Clear
4:15 PM 50.0 °F - 30.2 °F 47% 30.11 in 10.0 mi WNW 8.1 mph - N/A   Clear
4:35 PM 48.2 °F - 30.2 °F 50% 30.12 in 10.0 mi WNW 5.8 mph - N/A   Clear
4:55 PM 48.2 °F - 30.2 °F 50% 30.14 in 10.0 mi WNW 5.8 mph - N/A   Clear
5:15 PM 46.4 °F 43.5 °F 30.2 °F 53% 30.15 in 10.0 mi NW 5.8 mph - N/A   Clear
5:35 PM 44.6 °F 41.4 °F 30.2 °F 57% 30.16 in 10.0 mi NW 5.8 mph - N/A   Clear
5:55 PM 44.6 °F 43.1 °F 30.2 °F 57% 30.18 in 10.0 mi WNW 3.5 mph - N/A   Clear
6:15 PM 42.8 °F 40.1 °F 30.2 °F 61% 30.18 in 10.0 mi WNW 4.6 mph - N/A   Clear
6:35 PM 42.8 °F 41.1 °F 30.2 °F 61% 30.18 in 10.0 mi WNW 3.5 mph - N/A   Clear
6:55 PM 42.8 °F - 30.2 °F 61% 30.18 in 10.0 mi Calm Calm - N/A   Clear
7:15 PM 42.8 °F 40.1 °F 30.2 °F 61% 30.19 in 10.0 mi WNW 4.6 mph - N/A   Clear
7:35 PM 42.8 °F 41.1 °F 32.0 °F 66% 30.20 in 10.0 mi NW 3.5 mph - N/A   Clear
7:55 PM 39.2 °F 37.0 °F 30.2 °F 70% 30.19 in 10.0 mi WNW 3.5 mph - N/A   Clear
8:15 PM 39.2 °F 37.0 °F 30.2 °F 70% 30.19 in 10.0 mi West 3.5 mph - N/A   Clear
8:35 PM 39.2 °F 37.0 °F 32.0 °F 75% 30.19 in 10.0 mi West 3.5 mph - N/A   Clear
8:55 PM 39.2 °F 35.9 °F 32.0 °F 75% 30.21 in 10.0 mi WNW 4.6 mph - N/A   Clear
9:15 PM 39.2 °F 35.0 °F 32.0 °F 75% 30.20 in 10.0 mi West 5.8 mph - N/A   Clear
9:35 PM 39.2 °F 35.0 °F 30.2 °F 70% 30.20 in 10.0 mi West 5.8 mph - N/A   Clear
9:55 PM 39.2 °F 37.0 °F 30.2 °F 70% 30.20 in 10.0 mi West 3.5 mph - N/A   Clear
10:15 PM 39.2 °F 35.0 °F 30.2 °F 70% 30.20 in 10.0 mi West 5.8 mph - N/A   Clear
10:35 PM 39.2 °F 35.9 °F 30.2 °F 70% 30.19 in 10.0 mi West 4.6 mph - N/A   Clear
10:55 PM 39.2 °F 35.9 °F 30.2 °F 70% 30.18 in 10.0 mi West 4.6 mph - N/A   Clear
11:15 PM 39.2 °F 35.9 °F 30.2 °F 70% 30.17 in 10.0 mi West 4.6 mph - N/A   Clear
11:35 PM 37.4 °F 34.9 °F 30.2 °F 75% 30.17 in 10.0 mi West 3.5 mph - N/A   Clear
11:55 PM 37.4 °F 34.9 °F 30.2 °F 75% 30.17 in 10.0 mi WSW 3.5 mph - N/A   Clear